QPF
0.01 0.00 0.00 0.00 0.00 0.01 0.01 0.01 0.02 0.01 0.00 0.01 0.01 0.01 0.01 0.00 0.01 0.00 0.00 0.00 0.00 0.00 0.01 0.01 0.01 0.01 0.01 0.00 0.01 0.01 0.01 0.01 0.02 0.02 0.03 0.02 0.02 0.01 0.02 0.03 0.03 0.02 0.01 0.02
0.00 0.00 0.00 0.00 0.00 0.00 0.00 0.01 0.01 0.01 0.01 0.01 0.01 0.01 0.01 0.01 0.01 0.00 0.00 0.00 0.01 0.01 0.00 0.00 0.00 0.01 0.01 0.01 0.00 0.00 0.01 0.01 0.01 0.02 0.03 0.04 0.02 0.01 0.02 0.02 0.02 0.03 0.02 0.02
0.00 0.00 0.00 0.00 0.00 0.00 0.00 0.00 0.01 0.01 0.01 0.01 0.01 0.01 0.01 0.01 0.00 0.00 0.00 0.00 0.00 0.01 0.00 0.00 0.00 0.00 0.01 0.01 0.00 0.01 0.00 0.00 0.01 0.01 0.02 0.04 0.05 0.03 0.02 0.01 0.01 0.02 0.02 0.02
0.01 0.00 0.00 0.00 0.00 0.00 0.00 0.00 0.01 0.01 0.01 0.01 0.01 0.01 0.01 0.01 0.00 0.00 0.00 0.00 0.00 0.00 0.01 0.00 0.00 0.00 0.00 0.01 0.01 0.01 0.01 0.01 0.01 0.01 0.01 0.02 0.02 0.02 0.03 0.03 0.02 0.02 0.02 0.02
0.01 0.01 0.01 0.00 0.00 0.00 0.00 0.00 0.00 0.01 0.01 0.01 0.01 0.01 0.01 0.01 0.00 0.00 0.00 0.00 0.00 0.00 0.00 0.00 0.00 0.01 0.01 0.01 0.01 0.02 0.02 0.02 0.01 0.01 0.01 0.01 0.01 0.01 0.02 0.02 0.03 0.03 0.02 0.01
0.03 0.02 0.01 0.00 0.01 0.01 0.01 0.01 0.00 0.00 0.00 0.01 0.01 0.01 0.01 0.01 0.00 0.00 0.00 0.00 0.00 0.00 0.00 0.00 0.00 0.01 0.01 0.01 0.02 0.02 0.02 0.02 0.02 0.01 0.01 0.01 0.01 0.01 0.01 0.02 0.02 0.02 0.02 0.02
0.03 0.02 0.01 0.00 0.01 0.02 0.02 0.02 0.01 0.01 0.01 0.01 0.01 0.01 0.01 0.00 0.00 0.00 0.00 0.00 0.00 0.00 0.00 0.00 0.00 0.00 0.01 0.01 0.01 0.02 0.02 0.02 0.02 0.02 0.01 0.01 0.01 0.01 0.01 0.01 0.01 0.01 0.02 0.02
0.02 0.02 0.01 0.01 0.01 0.02 0.04 0.02 0.01 0.01 0.01 0.01 0.01 0.01 0.01 0.00 0.00 0.00 0.00 0.00 0.00 0.00 0.00 0.00 0.00 0.00 0.00 0.01 0.01 0.02 0.02 0.02 0.02 0.02 0.01 0.01 0.01 0.02 0.01 0.01 0.01 0.01 0.02 0.02
0.03 0.02 0.01 0.01 0.01 0.02 0.03 0.02 0.01 0.01 0.01 0.01 0.01 0.00 0.00 0.00 0.00 0.00 0.00 0.00 0.00 0.00 0.00 0.00 0.00 0.00 0.00 0.01 0.01 0.02 0.02 0.02 0.02 0.02 0.02 0.01 0.01 0.02 0.02 0.02 0.02 0.02 0.02 0.02
0.03 0.02 0.02 0.02 0.02 0.03 0.03 0.02 0.01 0.01 0.01 0.01 0.01 0.00 0.00 0.00 0.00 0.00 0.00 0.00 0.00 0.00 0.00 0.00 0.00 0.00 0.01 0.01 0.01 0.01 0.02 0.02 0.02 0.03 0.02 0.02 0.02 0.02 0.02 0.01 0.01 0.02 0.02 0.02
0.03 0.03 0.03 0.03 0.04 0.04 0.03 0.02 0.01 0.01 0.01 0.01 0.00 0.00 0.00 0.00 0.00 0.00 0.00 0.00 0.00 0.00 0.00 0.00 0.00 0.00 0.01 0.01 0.01 0.01 0.01 0.02 0.02 0.03 0.02 0.02 0.02 0.02 0.02 0.02 0.01 0.02 0.02 0.02
0.04 0.04 0.04 0.03 0.03 0.04 0.04 0.03 0.01 0.00 0.00 0.00 0.00 0.00 0.00 0.00 0.00 0.00 0.00 0.00 0.00 0.00 0.00 0.00 0.00 0.01 0.01 0.01 0.01 0.01 0.01 0.02 0.02 0.03 0.02 0.02 0.02 0.02 0.02 0.02 0.02 0.02 0.02 0.02
0.04 0.03 0.02 0.01 0.02 0.04 0.03 0.02 0.01 0.00 0.00 0.00 0.00 0.00 0.00 0.00 0.00 0.00 0.00 0.00 0.00 0.00 0.00 0.00 0.00 0.01 0.02 0.03 0.03 0.02 0.02 0.02 0.02 0.03 0.02 0.02 0.02 0.02 0.02 0.02 0.02 0.01 0.01 0.02
0.01 0.01 0.01 0.01 0.01 0.02 0.01 0.01 0.01 0.01 0.00 0.00 0.00 0.00 0.00 0.00 0.00 0.00 0.00 0.00 0.00 0.00 0.00 0.00 0.00 0.01 0.03 0.03 0.04 0.05 0.06 0.05 0.03 0.03 0.03 0.03 0.03 0.03 0.03 0.03 0.02 0.01 0.01 0.01
0.01 0.01 0.01 0.01 0.01 0.01 0.01 0.01 0.01 0.01 0.01 0.00 0.00 0.00 0.00 0.00 0.00 0.00 0.00 0.00 0.00 0.01 0.00 0.00 0.01 0.01 0.02 0.02 0.03 0.04 0.05 0.07 0.08 0.07 0.05 0.03 0.03 0.03 0.03 0.03 0.03 0.02 0.02 0.02
0.02 0.01 0.01 0.01 0.01 0.01 0.01 0.00 0.01 0.01 0.01 0.01 0.01 0.01 0.00 0.00 0.00 0.00 0.00 0.00 0.01 0.01 0.01 0.01 0.01 0.01 0.01 0.01 0.02 0.02 0.02 0.03 0.05 0.07 0.09 0.09 0.06 0.05 0.04 0.04 0.04 0.04 0.03 0.02
0.02 0.02 0.01 0.01 0.01 0.01 0.02 0.02 0.01 0.01 0.01 0.01 0.00 0.00 0.00 0.00 0.00 0.00 0.00 0.00 0.00 0.01 0.01 0.01 0.01 0.00 0.01 0.01 0.02 0.02 0.02 0.02 0.03 0.03 0.05 0.07 0.09 0.09 0.07 0.05 0.04 0.04 0.03 0.02
0.02 0.01 0.01 0.01 0.01 0.02 0.03 0.03 0.01 0.01 0.01 0.01 0.00 0.00 0.00 0.00 0.01 0.01 0.01 0.01 0.00 0.00 0.00 0.00 0.01 0.01 0.01 0.02 0.02 0.02 0.03 0.03 0.03 0.03 0.03 0.04 0.05 0.06 0.08 0.07 0.05 0.04 0.03 0.03
0.01 0.01 0.01 0.01 0.01 0.01 0.03 0.05 0.02 0.01 0.01 0.01 0.01 0.00 0.01 0.01 0.01 0.01 0.01 0.01 0.00 0.00 0.00 0.01 0.01 0.01 0.01 0.01 0.02 0.02 0.03 0.04 0.04 0.03 0.03 0.03 0.03 0.03 0.04 0.05 0.05 0.04 0.03 0.03
0.00 0.01 0.01 0.01 0.00 0.01 0.03 0.05 0.02 0.00 0.00 0.01 0.01 0.01 0.01 0.01 0.00 0.01 0.01 0.00 0.00 0.00 0.00 0.01 0.01 0.01 0.01 0.01 0.02 0.03 0.03 0.05 0.05 0.04 0.03 0.03 0.02 0.02 0.02 0.03 0.03 0.03 0.03 0.03
0.00 0.01 0.01 0.01 0.01 0.01 0.02 0.03 0.01 0.00 0.00 0.00 0.00 0.01 0.00 0.00 0.00 0.00 0.00 0.00 0.00 0.00 0.01 0.01 0.01 0.01 0.02 0.03 0.04 0.04 0.04 0.04 0.05 0.05 0.04 0.04 0.03 0.02 0.02 0.02 0.02 0.02 0.02 0.02
0.01 0.01 0.01 0.01 0.01 0.01 0.02 0.04 0.03 0.01 0.01 0.01 0.01 0.01 0.01 0.01 0.01 0.00 0.00 0.01 0.01 0.01 0.01 0.01 0.01 0.02 0.03 0.05 0.04 0.04 0.04 0.04 0.04 0.04 0.05 0.04 0.03 0.03 0.02 0.03 0.02 0.02 0.02 0.02
0.01 0.01 0.01 0.01 0.01 0.01 0.02 0.05 0.05 0.02 0.01 0.01 0.01 0.01 0.01 0.01 0.01 0.01 0.01 0.01 0.01 0.01 0.01 0.01 0.02 0.04 0.06 0.05 0.03 0.04 0.05 0.04 0.04 0.04 0.04 0.04 0.04 0.05 0.05 0.04 0.03 0.02 0.02 0.02
0.01 0.01 0.01 0.01 0.01 0.01 0.02 0.04 0.05 0.03 0.01 0.01 0.01 0.01 0.01 0.01 0.01 0.01 0.02 0.02 0.02 0.02 0.02 0.02 0.03 0.05 0.05 0.04 0.03 0.03 0.04 0.04 0.04 0.04 0.04 0.03 0.04 0.06 0.06 0.05 0.04 0.03 0.02 0.02
0.01 0.01 0.00 0.00 0.00 0.01 0.01 0.02 0.03 0.03 0.03 0.02 0.01 0.01 0.01 0.02 0.03 0.03 0.03 0.03 0.03 0.03 0.02 0.02 0.04 0.05 0.04 0.03 0.03 0.03 0.04 0.04 0.04 0.04 0.03 0.03 0.03 0.03 0.02 0.03 0.03 0.03 0.02 0.02
0.01 0.01 0.00 0.01 0.01 0.01 0.01 0.01 0.02 0.02 0.02 0.02 0.02 0.02 0.02 0.03 0.03 0.04 0.03 0.03 0.03 0.03 0.03 0.03 0.04 0.05 0.04 0.03 0.03 0.03 0.03 0.05 0.04 0.03 0.03 0.03 0.02 0.02 0.02 0.03 0.03 0.03 0.03 0.03
0.00 0.00 0.00 0.00 0.00 0.01 0.01 0.01 0.01 0.01 0.01 0.02 0.02 0.03 0.03 0.03 0.03 0.03 0.02 0.02 0.02 0.03 0.04 0.05 0.05 0.06 0.06 0.06 0.06 0.05 0.05 0.04 0.04 0.03 0.03 0.03 0.02 0.02 0.02 0.02 0.02 0.02 0.02 0.02
MSLP
1015.68 1015.28 1014.83 1014.34 1013.82 1013.24 1012.61 1011.92 1011.18 1010.42 1009.68 1009.01 1008.50 1008.18 1008.10 1008.26 1008.66 1009.24 1009.94 1010.69 1011.40 1012.03 1012.54 1012.93 1013.20 1013.40 1013.57 1013.75 1013.98 1014.27 1014.62 1015.01 1015.42 1015.81 1016.16 1016.45 1016.69 1016.88 1017.05 1017.20 1017.38 1017.57 1017.81 1018.08
1015.41 1014.92 1014.35 1013.72 1013.04 1012.33 1011.59 1010.83 1010.07 1009.35 1008.69 1008.15 1007.75 1007.55 1007.55 1007.77 1008.18 1008.74 1009.39 1010.09 1010.77 1011.38 1011.91 1012.35 1012.71 1013.02 1013.30 1013.61 1013.94 1014.32 1014.74 1015.19 1015.64 1016.06 1016.44 1016.77 1017.04 1017.27 1017.46 1017.64 1017.83 1018.04 1018.28 1018.55
1015.00 1014.45 1013.80 1013.10 1012.34 1011.56 1010.78 1010.01 1009.28 1008.61 1008.02 1007.56 1007.25 1007.11 1007.14 1007.35 1007.72 1008.22 1008.81 1009.43 1010.06 1010.66 1011.21 1011.70 1012.14 1012.56 1012.96 1013.38 1013.83 1014.30 1014.79 1015.30 1015.80 1016.27 1016.70 1017.07 1017.39 1017.66 1017.90 1018.12 1018.34 1018.57 1018.81 1019.08
1014.49 1013.92 1013.26 1012.54 1011.79 1011.01 1010.25 1009.52 1008.83 1008.21 1007.68 1007.27 1006.98 1006.84 1006.84 1007.00 1007.29 1007.70 1008.19 1008.74 1009.32 1009.90 1010.47 1011.02 1011.54 1012.06 1012.57 1013.09 1013.63 1014.18 1014.75 1015.31 1015.87 1016.39 1016.88 1017.31 1017.70 1018.04 1018.34 1018.61 1018.87 1019.12 1019.37 1019.64
1013.94 1013.38 1012.76 1012.09 1011.39 1010.68 1009.98 1009.30 1008.67 1008.09 1007.59 1007.17 1006.86 1006.66 1006.59 1006.65 1006.84 1007.14 1007.55 1008.03 1008.57 1009.15 1009.75 1010.35 1010.96 1011.56 1012.16 1012.77 1013.38 1013.99 1014.61 1015.22 1015.83 1016.41 1016.96 1017.47 1017.93 1018.35 1018.72 1019.06 1019.37 1019.65 1019.91 1020.17
1013.40 1012.87 1012.31 1011.72 1011.10 1010.48 1009.86 1009.25 1008.66 1008.10 1007.58 1007.12 1006.74 1006.46 1006.28 1006.23 1006.31 1006.52 1006.85 1007.30 1007.83 1008.42 1009.07 1009.74 1010.41 1011.09 1011.76 1012.43 1013.09 1013.74 1014.39 1015.04 1015.69 1016.32 1016.93 1017.52 1018.07 1018.57 1019.02 1019.43 1019.78 1020.10 1020.38 1020.64
1012.87 1012.39 1011.89 1011.38 1010.87 1010.34 1009.79 1009.23 1008.65 1008.08 1007.52 1006.98 1006.50 1006.11 1005.82 1005.67 1005.66 1005.80 1006.10 1006.53 1007.09 1007.74 1008.44 1009.19 1009.94 1010.68 1011.40 1012.10 1012.78 1013.45 1014.11 1014.78 1015.45 1016.13 1016.80 1017.46 1018.08 1018.67 1019.20 1019.67 1020.08 1020.43 1020.72 1020.99
1012.37 1011.91 1011.48 1011.04 1010.60 1010.14 1009.64 1009.10 1008.52 1007.90 1007.26 1006.63 1006.04 1005.54 1005.15 1004.91 1004.84 1004.96 1005.27 1005.74 1006.36 1007.09 1007.88 1008.70 1009.52 1010.31 1011.07 1011.78 1012.47 1013.13 1013.79 1014.45 1015.14 1015.84 1016.56 1017.28 1017.98 1018.64 1019.24 1019.77 1020.23 1020.61 1020.93 1021.20
1011.90 1011.45 1011.04 1010.66 1010.26 1009.84 1009.36 1008.81 1008.18 1007.50 1006.77 1006.03 1005.34 1004.73 1004.26 1003.97 1003.89 1004.03 1004.38 1004.93 1005.64 1006.47 1007.36 1008.26 1009.15 1009.98 1010.76 1011.47 1012.13 1012.77 1013.41 1014.07 1014.75 1015.48 1016.23 1017.00 1017.75 1018.47 1019.13 1019.72 1020.22 1020.63 1020.98 1021.28
1011.44 1010.98 1010.58 1010.21 1009.84 1009.42 1008.93 1008.34 1007.65 1006.88 1006.06 1005.22 1004.43 1003.75 1003.23 1002.92 1002.86 1003.04 1003.47 1004.12 1004.95 1005.88 1006.87 1007.85 1008.79 1009.66 1010.44 1011.13 1011.77 1012.38 1012.99 1013.63 1014.31 1015.04 1015.82 1016.62 1017.42 1018.19 1018.89 1019.52 1020.06 1020.51 1020.88 1021.21
1010.99 1010.51 1010.11 1009.74 1009.36 1008.92 1008.40 1007.76 1007.00 1006.15 1005.24 1004.32 1003.45 1002.72 1002.17 1001.87 1001.84 1002.10 1002.61 1003.37 1004.29 1005.32 1006.39 1007.44 1008.42 1009.30 1010.08 1010.76 1011.37 1011.95 1012.53 1013.15 1013.82 1014.56 1015.35 1016.18 1017.01 1017.80 1018.54 1019.20 1019.77 1020.25 1020.66 1021.03
1010.54 1010.05 1009.64 1009.26 1008.87 1008.41 1007.86 1007.17 1006.36 1005.44 1004.46 1003.47 1002.56 1001.80 1001.25 1000.96 1000.98 1001.29 1001.88 1002.71 1003.72 1004.81 1005.94 1007.02 1008.02 1008.90 1009.67 1010.33 1010.92 1011.47 1012.04 1012.64 1013.31 1014.05 1014.86 1015.69 1016.54 1017.36 1018.12 1018.80 1019.39 1019.90 1020.34 1020.74
1010.09 1009.60 1009.20 1008.83 1008.44 1007.98 1007.40 1006.69 1005.84 1004.88 1003.86 1002.84 1001.90 1001.13 1000.58 1000.32 1000.36 1000.71 1001.34 1002.22 1003.25 1004.37 1005.51 1006.60 1007.59 1008.46 1009.21 1009.85 1010.42 1010.97 1011.53 1012.13 1012.81 1013.55 1014.36 1015.21 1016.06 1016.88 1017.64 1018.33 1018.93 1019.46 1019.93 1020.37
1009.63 1009.18 1008.82 1008.49 1008.13 1007.68 1007.12 1006.40 1005.55 1004.58 1003.55 1002.52 1001.58 1000.81 1000.27 1000.01 1000.06 1000.42 1001.05 1001.92 1002.93 1004.04 1005.14 1006.20 1007.16 1008.00 1008.72 1009.35 1009.92 1010.46 1011.03 1011.64 1012.33 1013.08 1013.89 1014.73 1015.58 1016.39 1017.14 1017.82 1018.43 1018.96 1019.45 1019.92
1009.19 1008.81 1008.52 1008.25 1007.95 1007.56 1007.03 1006.35 1005.53 1004.59 1003.57 1002.56 1001.64 1000.88 1000.34 1000.07 1000.10 1000.43 1001.02 1001.83 1002.78 1003.81 1004.85 1005.84 1006.75 1007.55 1008.25 1008.86 1009.43 1009.99 1010.57 1011.20 1011.90 1012.66 1013.47 1014.30 1015.12 1015.91 1016.64 1017.29 1017.88 1018.41 1018.91 1019.40
1008.78 1008.51 1008.32 1008.14 1007.92 1007.60 1007.14 1006.53 1005.76 1004.87 1003.90 1002.93 1002.04 1001.28 1000.75 1000.46 1000.45 1000.72 1001.23 1001.94 1002.80 1003.72 1004.66 1005.56 1006.40 1007.15 1007.82 1008.43 1009.00 1009.58 1010.18 1010.83 1011.54 1012.30 1013.09 1013.89 1014.68 1015.43 1016.12 1016.74 1017.30 1017.81 1018.30 1018.79
1008.46 1008.31 1008.22 1008.14 1008.02 1007.78 1007.40 1006.87 1006.17 1005.35 1004.45 1003.53 1002.67 1001.95 1001.41 1001.09 1001.03 1001.22 1001.63 1002.22 1002.95 1003.75 1004.57 1005.37 1006.13 1006.82 1007.46 1008.06 1008.64 1009.24 1009.86 1010.52 1011.24 1011.98 1012.75 1013.52 1014.25 1014.95 1015.58 1016.15 1016.67 1017.15 1017.63 1018.11
1008.27 1008.23 1008.24 1008.26 1008.21 1008.06 1007.76 1007.29 1006.67 1005.93 1005.10 1004.24 1003.44 1002.74 1002.20 1001.86 1001.74 1001.84 1002.14 1002.61 1003.20 1003.87 1004.57 1005.26 1005.93 1006.57 1007.18 1007.77 1008.36 1008.96 1009.60 1010.27 1010.97 1011.70 1012.43 1013.14 1013.81 1014.44 1015.01 1015.52 1015.99 1016.44 1016.89 1017.36
1008.25 1008.29 1008.38 1008.46 1008.48 1008.38 1008.13 1007.73 1007.17 1006.49 1005.73 1004.95 1004.19 1003.52 1002.99 1002.64 1002.47 1002.49 1002.69 1003.03 1003.50 1004.03 1004.61 1005.21 1005.80 1006.38 1006.95 1007.53 1008.11 1008.72 1009.36 1010.02 1010.71 1011.40 1012.08 1012.74 1013.34 1013.90 1014.40 1014.85 1015.27 1015.68 1016.10 1016.56
1008.42 1008.51 1008.64 1008.74 1008.77 1008.69 1008.47 1008.10 1007.59 1006.97 1006.27 1005.54 1004.84 1004.21 1003.70 1003.33 1003.12 1003.08 1003.19 1003.43 1003.77 1004.19 1004.66 1005.16 1005.67 1006.20 1006.73 1007.29 1007.87 1008.47 1009.10 1009.75 1010.40 1011.06 1011.69 1012.28 1012.82 1013.31 1013.74 1014.14 1014.52 1014.89 1015.29 1015.73
1008.76 1008.86 1008.97 1009.05 1009.06 1008.96 1008.73 1008.37 1007.88 1007.30 1006.65 1005.98 1005.33 1004.74 1004.25 1003.88 1003.65 1003.55 1003.59 1003.74 1003.98 1004.30 1004.67 1005.08 1005.52 1005.99 1006.48 1007.01 1007.56 1008.15 1008.76 1009.39 1010.02 1010.63 1011.21 1011.75 1012.23 1012.67 1013.05 1013.41 1013.75 1014.09 1014.48 1014.90
1009.22 1009.28 1009.35 1009.37 1009.32 1009.16 1008.90 1008.52 1008.04 1007.48 1006.87 1006.24 1005.64 1005.10 1004.63 1004.27 1004.03 1003.89 1003.87 1003.94 1004.09 1004.32 1004.60 1004.92 1005.29 1005.70 1006.15 1006.64 1007.17 1007.73 1008.32 1008.92 1009.52 1010.10 1010.64 1011.13 1011.58 1011.97 1012.32 1012.65 1012.97 1013.31 1013.67 1014.09
1009.70 1009.71 1009.70 1009.64 1009.51 1009.28 1008.97 1008.56 1008.07 1007.52 1006.95 1006.36 1005.81 1005.30 1004.87 1004.52 1004.26 1004.10 1004.02 1004.02 1004.10 1004.24 1004.43 1004.68 1004.97 1005.32 1005.71 1006.16 1006.66 1007.19 1007.75 1008.32 1008.89 1009.44 1009.96 1010.43 1010.85 1011.22 1011.56 1011.88 1012.20 1012.52 1012.89 1013.30
1010.11 1010.04 1009.95 1009.80 1009.58 1009.29 1008.92 1008.48 1007.99 1007.45 1006.90 1006.36 1005.85 1005.39 1004.98 1004.64 1004.38 1004.19 1004.06 1004.00 1004.00 1004.06 1004.17 1004.33 1004.55 1004.83 1005.17 1005.56 1006.02 1006.51 1007.04 1007.59 1008.14 1008.67 1009.17 1009.63 1010.04 1010.42 1010.76 1011.08 1011.40 1011.74 1012.11 1012.51
1010.32 1010.19 1010.02 1009.79 1009.50 1009.15 1008.74 1008.28 1007.79 1007.28 1006.77 1006.27 1005.80 1005.38 1005.00 1004.68 1004.41 1004.19 1004.02 1003.90 1003.83 1003.81 1003.83 1003.91 1004.05 1004.26 1004.53 1004.87 1005.28 1005.73 1006.23 1006.74 1007.27 1007.78 1008.28 1008.73 1009.15 1009.54 1009.89 1010.23 1010.57 1010.92 1011.29 1011.69
1010.25 1010.07 1009.84 1009.55 1009.21 1008.83 1008.41 1007.96 1007.49 1007.01 1006.55 1006.10 1005.69 1005.30 1004.95 1004.64 1004.36 1004.12 1003.91 1003.73 1003.59 1003.49 1003.44 1003.44 1003.50 1003.64 1003.84 1004.12 1004.46 1004.87 1005.32 1005.80 1006.30 1006.80 1007.28 1007.74 1008.17 1008.57 1008.94 1009.30 1009.65 1010.01 1010.40 1010.80
1009.84 1009.62 1009.35 1009.04 1008.69 1008.31 1007.90 1007.48 1007.06 1006.64 1006.23 1005.85 1005.48 1005.14 1004.83 1004.53 1004.25 1003.98 1003.74 1003.51 1003.31 1003.14 1003.02 1002.94 1002.93 1002.99 1003.12 1003.33 1003.62 1003.97 1004.37 1004.81 1005.27 1005.74 1006.21 1006.66 1007.09 1007.49 1007.88 1008.26 1008.63 1009.00 1009.39 1009.79
Thickness
5631 5635 5636 5636 5638 5639 5635 5633 5629 5636 5640 5649 5653 5654 5656 5657 5657 5657 5656 5656 5656 5654 5653 5652 5651 5651 5651 5651 5651 5650 5649 5648 5648 5649 5649 5649 5649 5649 5650 5650 5650 5650 5650 5650
5623 5628 5628 5628 5633 5634 5634 5634 5633 5635 5638 5649 5651 5651 5650 5650 5650 5650 5650 5650 5650 5649 5647 5646 5645 5645 5645 5645 5645 5645 5644 5643 5643 5643 5643 5643 5644 5644 5644 5644 5645 5644 5645 5645
5608 5616 5621 5618 5630 5632 5632 5634 5634 5630 5639 5643 5643 5645 5646 5645 5645 5644 5644 5644 5643 5642 5641 5640 5639 5639 5639 5640 5640 5639 5638 5638 5638 5638 5638 5638 5639 5638 5638 5638 5639 5639 5640 5640
5598 5606 5602 5622 5634 5634 5631 5632 5634 5635 5637 5637 5639 5640 5641 5641 5640 5639 5639 5638 5637 5636 5635 5635 5634 5634 5634 5634 5634 5633 5632 5632 5632 5632 5632 5632 5632 5632 5633 5633 5633 5634 5634 5635
5587 5590 5600 5618 5627 5626 5623 5624 5630 5630 5631 5632 5633 5633 5632 5636 5636 5634 5633 5633 5632 5631 5630 5629 5628 5628 5627 5627 5626 5626 5626 5625 5626 5626 5625 5626 5626 5626 5627 5627 5627 5628 5629 5629
5583 5587 5592 5613 5625 5626 5621 5615 5626 5625 5624 5624 5624 5617 5622 5629 5629 5628 5628 5627 5626 5626 5624 5622 5621 5621 5620 5619 5619 5619 5620 5620 5620 5620 5620 5620 5620 5621 5621 5621 5622 5622 5623 5623
5579 5580 5591 5611 5617 5618 5605 5611 5621 5620 5619 5617 5615 5616 5620 5621 5621 5621 5620 5620 5620 5618 5616 5615 5614 5613 5612 5612 5612 5614 5615 5615 5615 5615 5615 5614 5614 5615 5615 5615 5615 5615 5616 5617
5573 5575 5589 5610 5608 5604 5606 5613 5614 5614 5614 5612 5613 5614 5614 5614 5614 5614 5613 5612 5612 5610 5609 5608 5607 5606 5606 5606 5608 5608 5609 5609 5609 5609 5609 5609 5608 5608 5608 5607 5607 5607 5608 5609
5581 5589 5599 5603 5605 5607 5607 5606 5608 5607 5608 5608 5607 5607 5607 5607 5607 5606 5606 5605 5604 5602 5601 5601 5601 5600 5599 5601 5601 5601 5601 5602 5602 5602 5601 5601 5601 5600 5600 5600 5600 5600 5600 5602
5580 5589 5595 5598 5600 5601 5602 5602 5603 5603 5603 5602 5601 5600 5599 5599 5599 5598 5598 5598 5597 5595 5594 5594 5594 5594 5594 5594 5594 5594 5593 5593 5594 5593 5593 5593 5593 5593 5593 5593 5593 5593 5593 5595
5577 5585 5588 5594 5595 5596 5597 5597 5597 5597 5597 5596 5595 5595 5593 5592 5592 5591 5590 5590 5589 5588 5588 5588 5588 5587 5587 5587 5586 5585 5585 5585 5585 5585 5585 5585 5584 5584 5585 5586 5586 5587 5588 5589
5577 5585 5583 5588 5592 5593 5591 5591 5591 5592 5591 5591 5590 5589 5588 5586 5585 5584 5583 5583 5582 5581 5580 5581 5581 5581 5581 5580 5579 5578 5577 5577 5577 5576 5576 5575 5575 5575 5576 5577 5578 5579 5581 5582
5581 5584 5582 5585 5587 5587 5586 5586 5586 5586 5586 5585 5586 5585 5583 5581 5580 5578 5578 5576 5576 5575 5574 5574 5574 5574 5574 5573 5572 5571 5570 5570 5569 5569 5568 5567 5566 5566 5567 5568 5569 5570 5571 5572
5578 5577 5577 5580 5581 5582 5582 5582 5582 5581 5580 5580 5580 5579 5577 5575 5574 5572 5571 5571 5570 5569 5568 5568 5568 5568 5568 5566 5565 5564 5563 5563 5562 5561 5561 5559 5559 5558 5558 5559 5560 5560 5562 5563
5576 5575 5575 5576 5576 5577 5577 5576 5574 5573 5572 5573 5572 5572 5570 5569 5567 5567 5566 5565 5564 5562 5562 5561 5561 5562 5561 5560 5558 5557 5556 5555 5554 5553 5553 5552 5551 5550 5550 5550 5551 5551 5551 5553
5572 5572 5571 5570 5571 5571 5570 5569 5567 5567 5567 5566 5565 5565 5564 5563 5561 5560 5559 5559 5556 5555 5555 5555 5555 5555 5554 5553 5551 5550 5550 5550 5548 5546 5544 5544 5543 5542 5542 5542 5542 5542 5542 5544
5566 5566 5566 5566 5566 5565 5564 5563 5563 5562 5561 5560 5560 5559 5558 5556 5553 5552 5552 5551 5550 5549 5549 5548 5548 5548 5548 5547 5545 5544 5543 5542 5541 5539 5537 5537 5536 5536 5535 5534 5534 5535 5535 5537
5565 5566 5566 5564 5563 5561 5559 5558 5557 5556 5555 5555 5554 5552 5550 5548 5546 5546 5545 5544 5543 5543 5542 5542 5541 5541 5541 5540 5540 5538 5537 5536 5534 5533 5532 5531 5530 5530 5529 5528 5529 5529 5529 5529
5561 5561 5561 5561 5559 5556 5554 5552 5551 5551 5550 5548 5547 5545 5543 5542 5540 5539 5537 5537 5536 5536 5536 5535 5535 5534 5534 5534 5534 5533 5531 5530 5529 5528 5526 5526 5525 5525 5524 5523 5523 5523 5523 5523
5555 5555 5555 5555 5553 5551 5548 5547 5545 5544 5543 5542 5540 5538 5536 5535 5534 5532 5531 5530 5530 5530 5530 5530 5529 5529 5529 5529 5529 5527 5526 5525 5524 5523 5522 5521 5520 5520 5519 5518 5518 5518 5518 5518
5548 5548 5548 5547 5546 5545 5544 5542 5539 5538 5537 5536 5534 5532 5531 5529 5527 5526 5525 5525 5526 5525 5524 5525 5524 5524 5523 5523 5523 5521 5521 5520 5519 5518 5517 5517 5516 5515 5514 5514 5514 5514 5514 5514
5539 5539 5539 5539 5538 5538 5537 5535 5534 5532 5530 5529 5528 5527 5525 5523 5521 5520 5520 5519 5520 5520 5520 5519 5518 5519 5519 5518 5516 5516 5515 5515 5514 5514 5514 5513 5513 5512 5511 5510 5510 5510 5510 5510
5531 5531 5531 5531 5531 5530 5530 5529 5527 5526 5524 5523 5521 5520 5518 5517 5515 5514 5514 5515 5515 5515 5515 5513 5514 5514 5513 5511 5510 5510 5510 5510 5510 5511 5511 5511 5510 5509 5508 5507 5507 5507 5506 5506
5524 5524 5524 5524 5524 5522 5521 5521 5520 5519 5518 5517 5515 5514 5512 5511 5510 5509 5509 5510 5511 5510 5509 5509 5509 5509 5508 5505 5505 5504 5504 5505 5505 5506 5506 5506 5505 5505 5504 5503 5502 5502 5502 5502
5518 5518 5517 5516 5515 5515 5515 5515 5513 5512 5511 5510 5509 5508 5507 5506 5505 5505 5504 5504 5505 5504 5504 5504 5504 5504 5502 5500 5499 5499 5499 5499 5500 5500 5499 5499 5499 5499 5499 5498 5497 5497 5497 5497
5510 5510 5509 5509 5509 5509 5508 5507 5506 5505 5504 5503 5502 5502 5501 5501 5500 5499 5499 5499 5498 5499 5498 5498 5497 5497 5496 5494 5493 5493 5493 5494 5494 5494 5494 5494 5494 5493 5493 5492 5492 5492 5492 5492
5502 5502 5502 5502 5502 5502 5501 5501 5500 5499 5499 5498 5497 5496 5496 5495 5494 5493 5493 5492 5492 5492 5492 5491 5491 5490 5490 5489 5488 5488 5487 5488 5488 5488 5488 5488 5488 5488 5488 5487 5487 5487 5487 5488